Wind_Speed
24 26 26 25 26 29 30 32 33 31 30 30 31 32 33 31 29 27 26 26 27 26 25 23 23 24 26 28 29 29 29 29 29 30 31 32 32 32 32 32 32 33 33 32
28 29 29 27 27 28 29 30 30 28 27 28 29 29 27 24 19 16 16 16 16 18 19 21 21 22 24 26 27 28 28 29 29 30 30 31 31 30 29 29 29 30 30 30
32 32 32 30 28 27 27 27 27 26 26 26 26 25 24 21 16 12 10 9 11 13 16 19 20 21 22 23 24 25 26 28 28 29 29 29 29 29 28 28 28 29 30 29
37 36 33 30 29 26 25 24 24 25 25 24 23 22 21 18 15 11 9 8 9 11 14 16 18 20 21 22 22 22 24 25 26 28 28 28 28 27 27 27 27 28 29 29
38 37 35 29 29 26 25 22 23 24 23 21 19 19 18 16 13 11 10 10 10 11 12 14 16 18 19 20 21 22 22 23 24 25 26 26 25 25 24 24 24 25 27 28
33 34 35 30 28 25 25 22 22 21 20 18 16 16 16 14 13 12 11 10 10 11 11 13 15 16 18 19 21 22 22 22 23 22 22 21 21 20 20 22 23 24 25 27
28 30 31 30 29 26 26 24 22 20 18 16 15 15 15 14 12 12 11 11 10 11 11 12 13 15 17 18 20 21 21 21 20 19 18 18 18 18 19 20 21 22 23 23
25 28 29 29 31 30 28 26 23 21 18 16 14 14 13 12 11 10 10 10 9 9 10 10 10 12 13 14 15 16 16 16 15 15 14 14 14 14 15 16 18 18 19 19
26 27 28 30 32 32 31 28 25 23 20 17 15 13 12 11 10 9 8 7 7 7 8 8 8 8 8 9 9 10 10 11 11 11 12 12 12 12 13 15 16 16 17 18
29 27 28 29 30 31 31 29 26 24 23 20 18 15 13 12 11 10 9 8 7 7 7 7 7 7 6 6 6 5 6 7 8 10 11 12 13 14 16 16 17 17 18 19
27 27 27 25 26 27 28 28 27 25 25 24 22 19 18 16 15 14 13 12 10 10 9 9 8 8 7 6 6 5 4 5 7 9 11 13 15 16 17 17 17 17 18 19
24 25 27 24 24 24 25 26 27 26 26 27 25 23 22 21 20 19 17 16 15 14 13 12 12 11 10 9 8 8 7 7 8 9 11 12 13 13 13 14 15 17 18 19
26 25 25 24 23 22 22 21 23 23 24 26 27 27 26 25 24 23 22 20 19 18 17 16 15 14 14 13 12 12 11 11 11 11 12 12 12 13 13 14 16 17 19 20
28 27 25 24 24 23 21 19 19 18 19 21 24 26 27 27 26 26 25 24 23 22 21 20 19 18 17 16 16 15 15 15 15 15 14 14 14 14 14 15 16 18 20 21
28 28 26 24 24 23 22 21 20 18 17 18 20 22 24 26 26 27 27 26 25 25 25 24 23 22 20 19 18 18 17 17 17 17 16 16 16 15 15 16 16 18 19 20
30 28 27 25 23 23 23 22 22 20 19 19 19 19 19 21 24 26 26 27 27 27 27 27 26 25 23 22 20 20 19 19 18 17 17 17 16 16 15 15 15 16 17 18
31 29 27 26 24 23 23 24 24 23 23 23 22 21 20 19 20 22 24 25 25 26 27 27 28 27 25 24 23 22 21 20 20 19 18 17 17 16 15 14 13 14 14 15
31 29 28 27 26 24 24 24 25 26 26 25 24 22 21 20 19 20 22 23 23 24 24 25 26 27 27 26 25 23 22 21 20 20 19 18 17 16 14 13 13 13 14 15
31 30 30 30 29 28 26 25 25 25 26 27 26 24 22 21 21 22 23 24 23 23 23 23 23 24 26 26 26 24 22 21 21 21 19 18 17 16 14 13 14 14 16 17
35 33 31 31 33 32 30 28 28 28 28 28 29 28 26 24 23 24 25 25 24 24 24 22 21 21 23 25 26 25 23 21 21 21 20 19 18 16 15 14 15 16 18 19
39 37 35 34 36 37 35 32 32 32 32 32 32 32 31 30 28 28 28 26 24 25 25 22 19 18 20 22 24 25 24 22 21 21 20 19 18 16 15 15 17 18 19 21
43 43 42 39 39 39 39 38 37 36 36 36 37 37 37 36 34 33 31 28 26 28 28 24 20 18 20 21 21 23 24 23 22 21 20 19 17 16 16 16 18 19 21 22
50 49 47 46 46 47 47 45 43 42 41 42 42 42 42 41 38 37 34 31 30 31 30 26 22 21 21 21 21 22 24 24 23 22 20 19 17 16 16 17 18 19 21 22
59 58 56 54 53 52 52 52 50 48 46 46 45 45 44 43 41 39 37 35 35 35 34 30 26 24 24 22 22 23 24 25 24 23 21 20 19 17 17 17 18 19 20 22
67 66 64 61 58 56 54 53 51 49 48 47 46 45 44 43 42 40 39 38 37 37 36 33 30 28 25 22 21 22 23 24 24 23 22 21 20 18 18 18 19 20 22 23
63 64 63 61 58 54 51 49 46 45 45 45 44 43 43 43 42 41 39 38 37 37 35 34 32 30 27 23 20 21 22 23 24 24 23 22 20 18 18 19 20 22 23 24
51 51 52 52 50 47 44 42 40 40 40 40 40 40 40 41 41 40 39 38 37 37 35 34 33 31 28 24 22 21 22 23 24 24 23 21 20 19 20 21 21 22 24 25
Wind_Direction
292 291 292 297 303 306 311 316 321 325 323 321 319 317 313 305 294 281 271 266 265 266 267 266 270 270 265 261 261 264 265 267 269 270 272 273 274 274 275 275 275 276 278 280
292 291 292 295 298 302 308 315 320 323 324 323 325 326 326 321 311 290 274 266 265 263 262 261 264 265 264 262 262 264 265 266 267 268 269 270 272 274 276 277 277 277 278 281
288 287 288 290 292 297 303 310 317 322 324 324 326 330 333 331 324 310 286 261 250 251 257 258 260 261 261 262 263 263 265 266 265 265 266 269 270 273 276 279 280 281 282 284
281 282 282 286 287 292 298 306 314 321 325 326 325 327 329 331 329 325 309 286 272 266 263 263 262 261 261 262 264 265 265 266 266 265 266 268 272 275 279 281 283 284 285 285
279 278 277 279 284 290 294 301 310 318 323 327 327 326 327 330 328 326 319 306 294 286 279 274 272 270 270 269 269 270 270 268 268 268 270 272 276 279 282 284 285 285 286 286
286 280 279 278 279 283 286 291 299 308 317 325 328 327 328 333 332 329 323 317 312 307 301 294 288 284 281 278 275 273 271 271 271 272 275 279 282 285 287 287 287 287 287 287
295 288 284 287 284 281 280 284 290 299 311 322 327 327 327 330 334 334 331 326 321 315 309 304 298 292 288 283 279 275 272 271 273 276 279 282 284 287 289 290 292 292 293 293
302 295 291 288 286 284 282 281 285 290 298 308 316 320 321 326 334 340 338 335 331 327 322 315 308 302 298 290 283 278 274 273 274 276 278 280 284 289 294 298 299 299 299 299
305 302 295 287 286 286 283 279 278 283 286 292 298 303 308 313 322 330 336 342 343 340 335 329 324 319 314 307 297 286 279 276 272 272 275 276 281 289 298 302 301 300 300 299
305 305 299 291 286 284 281 277 273 275 277 280 283 286 289 293 297 301 306 311 316 321 324 325 329 333 336 337 334 316 291 277 272 269 270 274 279 287 294 297 296 295 296 298
310 304 297 296 288 283 281 277 272 270 270 271 272 275 276 279 283 285 287 290 293 296 300 303 306 312 321 329 333 329 312 285 272 269 270 276 281 286 291 293 294 295 297 298
312 304 298 297 292 287 282 278 272 267 264 265 267 268 269 271 274 277 281 284 286 288 291 294 295 296 297 301 305 308 306 299 289 283 282 283 286 289 291 293 295 297 298 300
308 306 303 300 295 292 287 280 275 269 265 264 265 265 266 267 269 271 276 279 281 283 284 287 289 290 290 290 292 294 296 295 294 292 291 291 291 293 294 296 298 299 300 303
304 302 300 297 293 291 289 286 281 278 271 268 268 268 266 265 267 269 272 275 276 277 279 281 284 285 286 286 287 288 290 291 291 292 293 293 294 296 297 300 302 302 304 308
302 298 296 293 290 287 283 283 285 284 281 277 277 275 271 264 263 265 268 271 273 273 274 276 279 281 283 283 283 283 284 286 287 289 290 292 294 296 299 302 302 303 307 313
301 297 293 290 287 283 280 279 280 280 280 280 283 286 282 272 264 263 266 269 271 272 273 273 274 276 278 279 280 280 281 283 284 286 287 290 293 295 297 297 295 298 306 314
298 295 290 287 286 284 281 277 275 276 278 281 280 280 281 278 273 268 267 270 272 274 273 272 272 272 272 273 275 277 278 280 281 281 282 285 288 289 289 286 285 293 305 317
294 290 287 285 283 282 281 277 275 274 275 278 279 278 277 274 273 272 272 275 277 276 275 274 273 272 268 267 269 272 275 276 276 276 277 280 284 286 287 287 289 296 307 318
291 286 283 280 278 278 277 277 276 275 274 274 274 273 273 272 270 271 273 276 280 278 273 274 276 277 270 265 263 265 269 272 273 272 272 275 279 283 286 289 293 297 304 312
284 280 278 275 273 273 271 272 274 275 275 275 276 275 274 272 271 268 267 270 274 272 271 272 278 283 278 268 262 261 263 267 268 268 270 272 275 279 282 286 290 294 300 308
274 272 272 270 268 264 262 264 268 271 273 275 277 277 276 274 272 268 265 263 263 262 263 266 272 281 285 278 266 259 259 261 262 263 265 269 273 278 282 285 288 292 298 304
268 265 264 263 259 258 259 261 263 265 268 272 275 277 277 275 272 268 265 259 254 254 255 256 261 272 281 281 274 262 258 259 261 261 262 265 270 276 281 284 285 287 292 299
266 263 260 260 259 257 259 260 261 262 264 268 272 273 274 273 270 266 262 257 251 249 249 247 250 261 271 277 276 266 258 256 258 261 264 268 272 277 281 282 282 285 292 300
267 264 262 261 261 260 260 261 263 265 267 268 270 270 269 269 267 264 260 255 250 247 246 245 245 253 262 269 273 268 260 254 254 257 262 267 270 274 279 282 284 288 296 303
270 268 267 265 264 263 262 263 265 266 267 268 268 267 266 265 263 261 257 253 250 246 243 242 241 244 252 263 270 268 260 253 251 253 259 264 268 272 278 283 286 291 297 303
273 274 273 271 269 267 266 265 266 266 266 266 265 264 263 261 259 256 253 249 245 243 241 239 238 239 244 253 263 265 258 251 249 251 257 262 267 273 279 284 287 292 297 301
275 276 274 273 271 269 267 266 265 265 264 264 263 261 260 258 256 253 249 245 240 237 236 235 234 236 239 245 255 260 256 250 248 250 253 258 264 271 279 283 287 290 295 300
Height
5806 5802 5800 5798 5795 5791 5787 5782 5776 5771 5764 5758 5751 5744 5736 5729 5724 5722 5724 5727 5730 5733 5736 5738 5740 5741 5742 5743 5744 5745 5746 5746 5746 5746 5746 5746 5746 5746 5745 5745 5745 5745 5745 5745
5799 5795 5793 5792 5790 5786 5782 5776 5770 5765 5760 5752 5745 5738 5731 5724 5719 5717 5717 5720 5722 5725 5727 5729 5731 5733 5734 5735 5736 5737 5737 5738 5738 5738 5738 5738 5738 5738 5737 5737 5737 5736 5736 5736
5791 5788 5786 5786 5783 5780 5777 5771 5766 5760 5755 5748 5741 5735 5729 5723 5718 5716 5715 5716 5718 5719 5721 5722 5724 5725 5727 5728 5728 5729 5729 5729 5729 5729 5730 5730 5730 5730 5730 5729 5729 5728 5728 5728
5782 5780 5779 5780 5775 5774 5770 5766 5761 5755 5750 5744 5738 5733 5727 5723 5719 5716 5714 5714 5715 5716 5716 5717 5718 5719 5720 5720 5720 5720 5721 5721 5721 5721 5721 5722 5722 5722 5722 5722 5721 5721 5720 5720
5772 5769 5769 5770 5767 5766 5763 5760 5756 5751 5746 5741 5735 5730 5725 5721 5718 5715 5714 5713 5712 5712 5712 5712 5713 5713 5713 5713 5713 5714 5713 5713 5713 5713 5714 5714 5714 5715 5715 5714 5714 5713 5712 5712
5762 5760 5758 5761 5760 5758 5757 5754 5751 5747 5742 5737 5733 5728 5724 5720 5716 5714 5712 5710 5709 5709 5708 5708 5708 5707 5707 5707 5707 5707 5707 5706 5707 5707 5707 5707 5708 5708 5708 5707 5707 5706 5705 5704
5755 5751 5749 5750 5750 5750 5749 5748 5745 5741 5738 5734 5729 5726 5722 5718 5715 5712 5710 5708 5707 5706 5705 5704 5704 5703 5702 5702 5701 5701 5700 5700 5701 5701 5701 5702 5702 5702 5702 5701 5700 5698 5697 5696
5748 5744 5745 5743 5740 5740 5740 5739 5737 5736 5733 5730 5727 5724 5720 5716 5713 5710 5708 5707 5705 5704 5703 5701 5700 5699 5698 5697 5696 5695 5695 5695 5695 5696 5696 5697 5697 5697 5696 5695 5694 5693 5691 5690
5743 5741 5737 5734 5732 5730 5730 5730 5730 5729 5728 5726 5724 5721 5718 5715 5712 5710 5708 5706 5704 5703 5702 5700 5699 5697 5696 5694 5692 5691 5691 5691 5691 5692 5692 5692 5692 5692 5692 5691 5690 5688 5686 5685
5738 5734 5730 5727 5724 5722 5721 5721 5722 5722 5721 5720 5719 5718 5716 5713 5711 5709 5707 5705 5703 5702 5701 5699 5698 5696 5694 5692 5690 5688 5688 5687 5688 5688 5688 5688 5688 5688 5687 5686 5685 5683 5682 5680
5732 5729 5724 5721 5717 5715 5713 5712 5713 5714 5714 5713 5713 5713 5711 5710 5708 5706 5704 5703 5701 5700 5699 5697 5696 5694 5692 5690 5689 5687 5686 5685 5685 5684 5684 5684 5684 5683 5682 5681 5679 5678 5676 5675
5727 5723 5718 5716 5712 5708 5705 5704 5704 5704 5705 5705 5706 5706 5705 5704 5703 5702 5700 5699 5698 5697 5695 5694 5692 5691 5689 5688 5686 5685 5684 5682 5682 5681 5680 5679 5679 5678 5677 5675 5674 5672 5671 5669
5720 5716 5712 5709 5705 5702 5698 5697 5695 5695 5696 5697 5697 5697 5697 5697 5696 5695 5695 5694 5693 5692 5691 5690 5689 5687 5686 5684 5683 5682 5681 5679 5678 5677 5676 5675 5674 5673 5672 5671 5669 5667 5665 5663
5713 5709 5706 5702 5699 5696 5693 5690 5689 5688 5688 5688 5688 5688 5688 5688 5687 5687 5687 5687 5687 5686 5685 5684 5684 5683 5682 5680 5679 5678 5677 5676 5674 5673 5672 5671 5670 5669 5667 5666 5664 5661 5659 5658
5706 5702 5698 5695 5692 5689 5687 5684 5683 5682 5681 5681 5680 5679 5679 5678 5678 5678 5679 5679 5679 5679 5678 5678 5677 5677 5676 5675 5674 5673 5672 5671 5670 5669 5667 5666 5665 5664 5663 5661 5659 5656 5654 5652
5698 5694 5690 5687 5684 5682 5680 5678 5676 5675 5674 5673 5673 5672 5670 5670 5669 5669 5670 5670 5670 5670 5670 5670 5669 5669 5669 5669 5668 5667 5666 5665 5665 5663 5662 5661 5660 5659 5658 5656 5655 5652 5650 5648
5688 5685 5682 5679 5676 5674 5672 5670 5669 5667 5666 5665 5665 5664 5663 5663 5662 5661 5661 5661 5661 5661 5661 5661 5660 5660 5661 5661 5661 5661 5660 5659 5658 5658 5657 5656 5655 5654 5653 5652 5651 5649 5646 5644
5677 5675 5672 5669 5667 5665 5663 5661 5660 5659 5658 5657 5656 5656 5655 5655 5655 5654 5653 5653 5653 5652 5652 5651 5651 5652 5652 5653 5653 5653 5653 5652 5652 5652 5651 5650 5649 5648 5647 5646 5645 5643 5641 5638
5664 5662 5660 5658 5656 5654 5653 5652 5651 5649 5648 5647 5646 5646 5647 5647 5647 5646 5646 5645 5645 5644 5643 5643 5643 5643 5643 5643 5644 5645 5645 5645 5645 5645 5644 5644 5643 5642 5641 5640 5639 5637 5635 5633
5652 5649 5647 5645 5643 5642 5641 5640 5640 5639 5638 5637 5636 5636 5636 5637 5637 5637 5637 5637 5638 5637 5636 5635 5636 5635 5634 5634 5635 5636 5637 5638 5638 5637 5637 5638 5637 5637 5635 5634 5633 5632 5630 5628
5637 5634 5632 5631 5629 5628 5626 5626 5627 5627 5627 5626 5626 5625 5625 5626 5626 5626 5626 5628 5630 5629 5628 5628 5628 5627 5626 5626 5626 5627 5629 5630 5631 5631 5631 5631 5631 5630 5629 5628 5627 5625 5624 5622
5620 5618 5616 5614 5613 5612 5610 5611 5611 5612 5613 5613 5613 5613 5613 5613 5614 5614 5616 5618 5619 5619 5619 5620 5620 5620 5619 5618 5618 5619 5620 5622 5623 5624 5625 5625 5625 5624 5623 5622 5621 5619 5618 5616
5599 5597 5595 5595 5594 5594 5594 5594 5594 5596 5598 5599 5599 5599 5599 5599 5600 5601 5603 5606 5608 5608 5609 5611 5612 5613 5612 5611 5611 5611 5612 5613 5615 5616 5617 5618 5618 5618 5617 5616 5614 5613 5612 5610
5576 5574 5573 5573 5573 5574 5575 5576 5577 5579 5581 5582 5583 5583 5584 5585 5586 5587 5589 5592 5594 5596 5598 5600 5603 5604 5604 5604 5604 5604 5604 5606 5607 5609 5610 5611 5611 5611 5610 5609 5608 5606 5605 5603
5550 5549 5549 5550 5552 5554 5555 5557 5559 5562 5563 5565 5566 5566 5567 5569 5571 5573 5575 5578 5580 5582 5585 5589 5591 5594 5595 5596 5597 5597 5597 5598 5600 5601 5603 5604 5604 5603 5603 5602 5601 5600 5598 5596
5526 5525 5526 5527 5530 5533 5536 5539 5542 5544 5545 5547 5548 5549 5550 5552 5554 5557 5560 5563 5566 5569 5573 5577 5580 5583 5586 5588 5589 5589 5589 5591 5592 5594 5595 5596 5596 5596 5596 5595 5594 5593 5591 5589
5507 5506 5506 5508 5512 5515 5519 5522 5525 5527 5529 5530 5531 5533 5534 5536 5538 5541 5545 5548 5552 5556 5560 5565 5569 5572 5576 5578 5580 5581 5582 5583 5585 5587 5588 5589 5589 5589 5589 5588 5587 5586 5584 5582